Hourly Data Report for October 03, 2017

All times are specified in Local Standard Time (LST). Add 1 hour to adjust for Daylight Saving Time where and when it is observed.

SWAN RIVER RCS
MANITOBA

52°06'53.900" N
101°13'58.500" W
334.80 m
504K80K
71443
WEQ

Download Data

Hourly Data (October 2017)
Hourly Data Report for October 3, 2017
Temp Definition
°C
Dew Point Temp Definition
°C
Rel Hum Definition
%
Wind Dir Definition
10's deg

Wind Spd Definition
km/h
Visibility Definition
km
Stn Press Definition
kPa
Hmdx Definition


Wind Chill Definition


Weather Definition


TIME
00:00 7.6 7.2 97 25 13   96.99     LegendNANA
01:00 7.8 6.5 91 34 15   97.05     LegendNANA
02:00 7.1 5.5 90 36 12   97.12     LegendNANA
03:00 7.0 4.0 82 2 16   97.21     LegendNANA
04:00 6.4 3.5 82 2 15   97.34     LegendNANA
05:00 5.7 3.8 87 1 24   97.41     LegendNANA
06:00 5.2 4.0 92 2 22   97.52     LegendNANA
07:00 5.2 3.6 89 2 24   97.57     LegendNANA
08:00 5.0 3.1 87 3 23   97.68     LegendNANA
09:00 4.8 3.0 88 3 28   97.77     LegendNANA
10:00 4.5 3.7 94 3 25   97.80     LegendNANA
11:00 4.6 3.6 93 3 23   97.88     LegendNANA
12:00 4.7 4.0 96 2 22   97.92     LegendNANA
13:00 5.3 4.7 96 2 23   97.94     LegendNANA
14:00 5.4 4.6 94 1 21   97.97     LegendNANA
15:00 5.7 4.1 89 2 19   98.03     LegendNANA
16:00 6.0 3.6 85 2 18   98.09     LegendNANA
17:00 6.1 3.8 85 4 14   98.11     LegendNANA
18:00 5.8 3.6 85 4 7   98.12     LegendNANA
19:00 5.4 3.4 87 9 4   98.15     LegendNANA
20:00 5.1 3.6 90 14 4   98.17     LegendNANA
21:00 4.9 3.6 91 21 6   98.18     LegendNANA
22:00 4.3 2.2 86 26 11   98.16     LegendNANA
23:00 3.6 1.8 88 25 12   98.15     LegendNANA

Notes on Data Quality.

Legend

  • E = Estimated
  • M = Missing
  • NA = Not Available
  • ‡ = Partner data that is not subject to review by the National Climate Archives
Date modified: